FDX1288 KMEM-KBHM

Flight info

Callsign FDX1288
Flight time 0h 32m
Altitude 25000
Route BBKNG7 KERMI VUZ
Aircraft MD11/H-SDE1E2E3FGHIJ2J3J4J5M1RWXY/LB1D1

Departure

Time 2026-05-06 01:22
Airport Memphis International Airport (KMEM)

Arrival

Time 2026-05-06 01:54
Airport Birmingham-Shuttlesworth International Airport (KBHM)
Time Latitude Longitude Altitude Speed Heading
2026-05-06 00:58 35.06100 -89.96174 338 ft 0 kts
2026-05-06 01:09 35.06093 -89.96174 333 ft 2 kts
2026-05-06 01:09 35.06077 -89.96175 334 ft 2 kts
2026-05-06 01:09 35.06059 -89.96175 334 ft 3 kts 340°
2026-05-06 01:10 35.06046 -89.96168 333 ft 3 kts 303°
2026-05-06 01:10 35.06039 -89.96151 333 ft 3 kts 274°
2026-05-06 01:10 35.06039 -89.96128 333 ft 2 kts 271°
2026-05-06 01:10 35.06038 -89.96122 333 ft 0 kts 272°
2026-05-06 01:15 35.06039 -89.96130 333 ft 3 kts 272°
2026-05-06 01:16 35.06040 -89.96159 333 ft 3 kts 272°
2026-05-06 01:16 35.06041 -89.96209 336 ft 7 kts 272°
2026-05-06 01:16 35.06043 -89.96267 338 ft 6 kts 272°
2026-05-06 01:16 35.06045 -89.96327 338 ft 9 kts 271°
2026-05-06 01:17 35.06047 -89.96403 338 ft 10 kts 271°
2026-05-06 01:17 35.06021 -89.96496 335 ft 13 kts 227°
2026-05-06 01:17 35.05955 -89.96547 333 ft 14 kts 214°
2026-05-06 01:17 35.05922 -89.96634 334 ft 11 kts 266°
2026-05-06 01:18 35.05922 -89.96765 334 ft 17 kts 271°
2026-05-06 01:18 35.05927 -89.96926 338 ft 20 kts 272°
2026-05-06 01:18 35.05932 -89.97108 338 ft 22 kts 271°
2026-05-06 01:18 35.05894 -89.97190 332 ft 6 kts 191°
2026-05-06 01:19 35.05857 -89.97191 334 ft 5 kts 180°
2026-05-06 01:19 35.05824 -89.97191 334 ft 8 kts 180°
2026-05-06 01:19 35.05738 -89.97194 335 ft 13 kts 182°
2026-05-06 01:19 35.05659 -89.97215 333 ft 10 kts 212°
2026-05-06 01:20 35.05619 -89.97272 334 ft 9 kts 234°
2026-05-06 01:20 35.05557 -89.97380 334 ft 21 kts 235°
2026-05-06 01:20 35.05493 -89.97492 332 ft 9 kts 234°
2026-05-06 01:20 35.05450 -89.97565 329 ft 13 kts 233°
2026-05-06 01:21 35.05397 -89.97611 328 ft 4 kts 184°
2026-05-06 01:21 35.05271 -89.97615 329 ft 51 kts 179°
2026-05-06 01:21 35.04620 -89.97602 328 ft 132 kts 179°
2026-05-06 01:21 35.03555 -89.97572 738 ft 163 kts 181°
2026-05-06 01:22 35.02431 -89.97482 1799 ft 157 kts 179°
2026-05-06 01:22 35.01463 -89.97260 3197 ft 139 kts 177°
2026-05-06 01:22 35.00473 -89.96971 3979 ft 153 kts 176°
2026-05-06 01:22 34.99429 -89.96657 4351 ft 160 kts 175°
2026-05-06 01:23 34.98250 -89.96317 4804 ft 193 kts 175°
2026-05-06 01:23 34.96817 -89.95905 5008 ft 230 kts 173°
2026-05-06 01:23 34.95158 -89.95412 5183 ft 258 kts 171°
2026-05-06 01:23 34.93528 -89.94345 6038 ft 280 kts 141°
2026-05-06 01:24 34.92432 -89.92297 6966 ft 301 kts 114°
2026-05-06 01:24 34.92057 -89.89740 7885 ft 314 kts 94°
2026-05-06 01:24 34.92082 -89.87043 8779 ft 322 kts 89°
2026-05-06 01:24 34.92159 -89.84282 9690 ft 329 kts 89°
2026-05-06 01:25 34.92171 -89.81463 10535 ft 336 kts 91°
2026-05-06 01:25 34.92097 -89.78632 11590 ft 333 kts 92°
2026-05-06 01:25 34.91996 -89.75675 11807 ft 366 kts 92°
2026-05-06 01:25 34.91885 -89.72430 11947 ft 398 kts 92°
2026-05-06 01:26 34.91772 -89.68970 12464 ft 415 kts 92°
2026-05-06 01:26 34.91667 -89.65419 13260 ft 424 kts 91°
2026-05-06 01:26 34.91611 -89.61798 13998 ft 432 kts 89°
2026-05-06 01:26 34.91594 -89.58102 14540 ft 446 kts 89°
2026-05-06 01:27 34.91594 -89.54265 14661 ft 469 kts 89°
2026-05-06 01:27 34.91599 -89.50233 15164 ft 479 kts 89°
2026-05-06 01:27 34.91601 -89.46135 15851 ft 485 kts 89°
2026-05-06 01:27 34.91599 -89.42000 16517 ft 490 kts 89°
2026-05-06 01:28 34.91593 -89.37833 17164 ft 495 kts 89°
2026-05-06 01:28 34.91584 -89.33618 17827 ft 500 kts 89°
2026-05-06 01:28 34.91573 -89.29357 18443 ft 505 kts 89°
2026-05-06 01:28 34.91561 -89.25117 19072 ft 509 kts 89°
2026-05-06 01:29 34.91391 -89.20780 19680 ft 513 kts 96°
2026-05-06 01:29 34.90863 -89.16466 20329 ft 518 kts 101°
2026-05-06 01:29 34.90135 -89.12148 20988 ft 522 kts 103°
2026-05-06 01:29 34.89332 -89.07801 21668 ft 527 kts 103°
2026-05-06 01:30 34.88519 -89.03426 22370 ft 532 kts 103°
2026-05-06 01:30 34.87720 -88.99006 23113 ft 536 kts 102°
2026-05-06 01:30 34.86939 -88.94551 23686 ft 537 kts 102°
2026-05-06 01:30 34.86177 -88.90110 24026 ft 536 kts 101°
2026-05-06 01:31 34.85422 -88.85666 24362 ft 535 kts 101°
2026-05-06 01:31 34.84671 -88.81223 24694 ft 535 kts 101°
2026-05-06 01:31 34.83918 -88.76785 24831 ft 536 kts 102°
2026-05-06 01:31 34.83172 -88.72400 24867 ft 535 kts 102°
2026-05-06 01:32 34.82413 -88.67966 24876 ft 535 kts 102°
2026-05-06 01:32 34.81654 -88.63539 24875 ft 534 kts 102°
2026-05-06 01:32 34.80892 -88.59116 24877 ft 534 kts 102°
2026-05-06 01:32 34.80129 -88.54695 24875 ft 534 kts 102°
2026-05-06 01:33 34.79364 -88.50273 24874 ft 534 kts 102°
2026-05-06 01:33 34.78599 -88.45858 24875 ft 533 kts 102°
2026-05-06 01:33 34.77831 -88.41440 24878 ft 533 kts 102°
2026-05-06 01:33 34.77064 -88.37033 24878 ft 533 kts 102°
2026-05-06 01:34 34.76294 -88.32621 24877 ft 532 kts 102°
2026-05-06 01:34 34.75523 -88.28215 24875 ft 532 kts 102°
2026-05-06 01:34 34.74753 -88.23819 24873 ft 532 kts 102°
2026-05-06 01:34 34.73979 -88.19423 24879 ft 531 kts 103°
2026-05-06 01:35 34.72882 -88.15128 24877 ft 530 kts 115°
2026-05-06 01:35 34.71127 -88.11228 24877 ft 525 kts 128°
2026-05-06 01:35 34.68811 -88.07915 24880 ft 518 kts 141°
2026-05-06 01:35 34.66053 -88.05149 24884 ft 513 kts 149°
2026-05-06 01:36 34.63182 -88.02575 24885 ft 513 kts 149°
2026-05-06 01:36 34.60361 -87.99907 24881 ft 515 kts 146°
2026-05-06 01:36 34.57632 -87.97063 24894 ft 518 kts 143°
2026-05-06 01:36 34.54989 -87.94079 24891 ft 519 kts 141°
2026-05-06 01:37 34.52402 -87.91007 24889 ft 520 kts 140°
2026-05-06 01:37 34.49842 -87.87897 24582 ft 523 kts 139°
2026-05-06 01:37 34.47294 -87.84782 23913 ft 519 kts 139°
2026-05-06 01:37 34.44762 -87.81690 23043 ft 515 kts 139°
2026-05-06 01:38 34.42241 -87.78627 22244 ft 505 kts 139°
2026-05-06 01:38 34.39804 -87.75673 21760 ft 487 kts 139°
2026-05-06 01:38 34.37428 -87.72807 21088 ft 477 kts 140°
2026-05-06 01:38 34.35084 -87.69990 20423 ft 470 kts 140°
2026-05-06 01:39 34.32773 -87.67221 19774 ft 465 kts 140°
2026-05-06 01:39 34.30485 -87.64482 19138 ft 460 kts 141°
2026-05-06 01:39 34.28248 -87.61806 18502 ft 454 kts 141°
2026-05-06 01:39 34.26016 -87.59136 17773 ft 449 kts 141°
2026-05-06 01:40 34.23806 -87.56496 16999 ft 444 kts 140°
2026-05-06 01:40 34.21617 -87.53882 16250 ft 439 kts 140°
2026-05-06 01:40 34.19458 -87.51306 15512 ft 435 kts 140°
2026-05-06 01:40 34.17315 -87.48751 14809 ft 430 kts 139°
2026-05-06 01:41 34.15194 -87.46223 14110 ft 426 kts 139°
2026-05-06 01:41 34.13092 -87.43732 13394 ft 422 kts 139°
2026-05-06 01:41 34.11009 -87.41268 12641 ft 417 kts 139°
2026-05-06 01:41 34.08961 -87.38842 12183 ft 405 kts 139°
2026-05-06 01:42 34.06987 -87.36497 11818 ft 392 kts 140°
2026-05-06 01:42 34.05074 -87.34223 11448 ft 380 kts 140°
2026-05-06 01:42 34.03217 -87.32018 11189 ft 369 kts 140°
2026-05-06 01:42 34.01394 -87.29858 11124 ft 366 kts 140°
2026-05-06 01:43 33.99578 -87.27711 11121 ft 366 kts 140°
2026-05-06 01:43 33.97757 -87.25560 10762 ft 366 kts 140°
2026-05-06 01:43 33.95976 -87.23451 10327 ft 361 kts 140°
2026-05-06 01:43 33.94199 -87.21347 9892 ft 356 kts 140°
2026-05-06 01:44 33.92442 -87.19267 9407 ft 351 kts 140°
2026-05-06 01:44 33.90708 -87.17217 8912 ft 347 kts 140°
2026-05-06 01:44 33.88999 -87.15198 8451 ft 342 kts 141°
2026-05-06 01:44 33.87310 -87.13203 8079 ft 338 kts 141°
2026-05-06 01:45 33.85645 -87.11239 7713 ft 333 kts 141°
2026-05-06 01:45 33.84004 -87.09269 7344 ft 333 kts 139°
2026-05-06 01:45 33.82481 -87.07186 7165 ft 331 kts 134°
2026-05-06 01:45 33.81164 -87.05089 7116 ft 322 kts 130°
2026-05-06 01:46 33.80005 -87.02899 7108 ft 306 kts 125°
2026-05-06 01:46 33.79021 -87.00647 7109 ft 302 kts 120°
2026-05-06 01:46 33.78182 -86.98321 7127 ft 303 kts 117°
2026-05-06 01:46 33.77399 -86.95967 7132 ft 303 kts 116°
2026-05-06 01:47 33.76633 -86.93641 7133 ft 303 kts 116°
2026-05-06 01:47 33.75858 -86.91283 7138 ft 303 kts 116°
2026-05-06 01:47 33.75088 -86.88936 6947 ft 300 kts 116°
2026-05-06 01:47 33.74323 -86.86591 6485 ft 303 kts 116°
2026-05-06 01:48 33.73558 -86.84223 5996 ft 305 kts 116°
2026-05-06 01:48 33.72793 -86.81835 5506 ft 306 kts 116°
2026-05-06 01:48 33.72031 -86.79452 5113 ft 303 kts 116°
2026-05-06 01:48 33.71355 -86.77064 4753 ft 301 kts 112°
2026-05-06 01:49 33.70844 -86.74624 4334 ft 300 kts 107°
2026-05-06 01:49 33.70505 -86.72166 4060 ft 294 kts 102°
2026-05-06 01:49 33.70268 -86.69788 3966 ft 281 kts 103°
2026-05-06 01:49 33.69944 -86.67517 3655 ft 277 kts 108°
2026-05-06 01:50 33.69469 -86.65312 3300 ft 270 kts 114°
2026-05-06 01:50 33.68802 -86.63253 3026 ft 257 kts 121°
2026-05-06 01:50 33.67870 -86.61532 2951 ft 233 kts 141°
2026-05-06 01:50 33.66586 -86.60610 3173 ft 206 kts 171°
2026-05-06 01:51 33.65509 -86.60650 3304 ft 209 kts 198°
2026-05-06 01:51 33.64338 -86.61660 2799 ft 212 kts 230°
2026-05-06 01:51 33.63568 -86.63166 2206 ft 209 kts 237°
2026-05-06 01:51 33.62919 -86.64577 1901 ft 178 kts 232°
2026-05-06 01:52 33.62206 -86.65671 1700 ft 151 kts 225°
2026-05-06 01:52 33.61569 -86.66599 1620 ft 145 kts 231°
2026-05-06 01:52 33.60998 -86.67596 1482 ft 140 kts 230°
2026-05-06 01:52 33.60460 -86.68542 1261 ft 141 kts 235°
2026-05-06 01:53 33.59882 -86.69577 1171 ft 155 kts 236°
2026-05-06 01:53 33.59268 -86.70635 1173 ft 156 kts 233°
2026-05-06 01:53 33.58620 -86.71720 1110 ft 164 kts 231°
2026-05-06 01:53 33.58013 -86.72750 880 ft 149 kts 235°
2026-05-06 01:54 33.57447 -86.73739 664 ft 139 kts 233°
2026-05-06 01:54 33.56973 -86.74564 627 ft 94 kts 235°
2026-05-06 01:54 33.56715 -86.75010 626 ft 36 kts 235°
2026-05-06 01:54 33.56604 -86.75202 627 ft 32 kts 235°
2026-05-06 01:55 33.56471 -86.75435 627 ft 33 kts 236°
2026-05-06 01:55 33.56357 -86.75584 631 ft 12 kts 191°
2026-05-06 01:55 33.56304 -86.75569 631 ft 6 kts 172°
2026-05-06 01:55 33.56275 -86.75587 624 ft 9 kts 221°
2026-05-06 01:56 33.56210 -86.75687 628 ft 17 kts 235°
2026-05-06 01:56 33.56147 -86.75795 627 ft 15 kts 235°
2026-05-06 01:56 33.56077 -86.75916 628 ft 21 kts 235°
2026-05-06 01:56 33.55997 -86.76053 623 ft 19 kts 235°
2026-05-06 01:57 33.55901 -86.76221 626 ft 31 kts 235°
2026-05-06 01:57 33.55787 -86.76418 626 ft 27 kts 235°
2026-05-06 01:57 33.55683 -86.76598 630 ft 25 kts 235°
2026-05-06 01:57 33.55588 -86.76763 627 ft 23 kts 235°
2026-05-06 01:58 33.55517 -86.76881 627 ft 8 kts 227°
2026-05-06 01:58 33.55486 -86.76895 626 ft 2 kts 172°
2026-05-06 01:58 33.55463 -86.76858 626 ft 8 kts 114°
2026-05-06 01:58 33.55459 -86.76799 624 ft 8 kts 92°
2026-05-06 01:59 33.55453 -86.76752 626 ft 2 kts 116°
2026-05-06 01:59 33.55428 -86.76738 630 ft 6 kts 165°
2026-05-06 01:59 33.55395 -86.76737 623 ft 4 kts 180°
2026-05-06 01:59 33.55387 -86.76737 623 ft 0 kts 180°